Flag for U.S.A. Weather past 2 weeks in Oberlin, Ohio, U.S.A.

Now
87 °F

Sunny.


Feels Like: 89 °F
Forecast: 66 / 89 °F
Wind: 14 mph from Southwest

Location: Lorain County Regional Airport

Current Time: Aug 30, 2014 at 12:55:20 PM

Latest Report: Aug 30, 2014 at 11:53 AM


Visibility: 10 mi

Pressure: 30.01 "Hg

Humidity: 50%

Dew point: 66 °F

Location of OberlinLocation

Historic Weather in Oberlin — Graph

°F

Oberlin temperature yesterday

Maximum temperature yesterday: 82 °F (at 4:53 PM)
Minimum temperature yesterday: 53 °F (at 1:53 AM)
Average temperature yesterday: 67 °F

Past Weeks' High & Low Weather Summary

 TemperatureHumidityPressure
High90 °F (Aug 26, 2:53 PM)90% (Aug 23, 3:53 AM)30.16 "Hg (Aug 23, 3:53 AM)
Low52 °F (Aug 16, 6:53 AM)34% (Aug 15, 3:53 PM)29.78 "Hg (Aug 19, 4:53 PM)
Average73 °F71%30.00 "Hg
* Reported Aug 15 11:53 AM — Aug 30 11:53 AM, Oberlin, Weather by CustomWeather, © 2014

Note: Actual official high and low records may vary slightly from our data, if they occured in-between our weather recording intervals... More about our weather records

Advertising

Oberlin weather history for previous 24 hours

 ConditionsComfort  
Time TempWeatherWind HumidityBarometerVisibility
11:53 AM
Aug 30
87 °FSunny.14 mph50%30.01 "Hg10 mi
10:53 AM85 °FSunny.12 mph55%30.02 "Hg10 mi
9:53 AM80 °FSunny.10 mph62%30.02 "Hg10 mi
8:53 AM75 °FSunny.8 mph66%30.03 "Hg10 mi
7:53 AM70 °FSunny.7 mph71%30.03 "Hg10 mi
6:53 AM69 °FClear.6 mph68%30.03 "Hg10 mi
5:53 AM69 °FClear.7 mph66%30.02 "Hg10 mi
4:53 AM70 °FPassing clouds.8 mph64%30.02 "Hg10 mi
3:53 AM70 °FPassing clouds.12 mph61%30.02 "Hg10 mi
2:53 AM70 °FPassing clouds.9 mph61%30.03 "Hg10 mi
1:53 AM70 °FPassing clouds.9 mph61%30.05 "Hg10 mi
12:53 AM70 °FClear.10 mph59%30.06 "Hg10 mi
11:53 PM
Aug 29
69 °FClear.8 mph63%30.06 "Hg10 mi
10:53 PM69 °FClear.6 mph63%30.06 "Hg10 mi
9:53 PM71 °FClear.6 mph59%30.06 "Hg10 mi
8:53 PM72 °FSunny.5 mph59%30.06 "Hg10 mi
7:53 PM77 °FSunny.5 mph50%30.06 "Hg10 mi
6:53 PM80 °FSunny.5 mph44%30.06 "Hg10 mi
5:53 PM82 °FSunny.3 mph40%30.07 "Hg10 mi
4:53 PM82 °FSunny.6 mph38%30.07 "Hg10 mi
2:53 PM80 °FSunny.7 mph36%30.10 "Hg10 mi
1:53 PM79 °FSunny.8 mph41%30.11 "Hg10 mi
12:53 PM76 °FSunny.8 mph50%30.13 "Hg10 mi
Weather by CustomWeather, © 2014

See weather overviewHow to use our weather pages